GW4609 Weather Reports


Display with metric or nautical units.
time (UTC)temp
F
wind
direction
speed
MPH
gust
MPH
rain 1hr
in
rain 24hr
in
rain mn
in
humidity
%
barometer
mb
20260503021634 43 299 0.0 1.0 0.00 0.00 0.00 71 1013.6
20260503021131 43 228 1.0 1.0 0.00 0.00 0.00 71 1013.3
20260503020628 44 281 0.0 1.0 0.00 0.00 0.00 67 1013.4
20260503020126 44 241 1.0 2.0 0.00 0.00 0.00 65 1013.5
20260503015622 45 305 1.0 1.0 0.00 0.00 0.00 65 1013.3
20260503015119 46 329 1.0 2.0 0.00 0.00 0.00 60 1013.4
20260503014615 46 329 1.0 1.0 0.00 0.00 0.00 58 1013.3
20260503014113 46 334 2.0 4.0 0.00 0.00 0.00 57 1013.3
20260503013610 46 331 0.0 3.0 0.00 0.00 0.00 58 1013.2
20260503013108 47 323 0.0 2.0 0.00 0.00 0.00 57 1013.2
20260503012605 47 317 0.0 0.0 0.00 0.00 0.00 57 1013.0
20260503012101 47 285 3.0 6.0 0.00 0.00 0.00 56 1013.0
20260503011558 47 297 0.0 0.0 0.00 0.00 0.00 58 1012.7
20260503011055 47 4 0.0 0.0 0.00 0.00 0.00 55 1012.9
20260503010551 48 65 1.0 1.0 0.00 0.00 0.00 56 1012.7
20260503010049 48 310 1.0 1.0 0.00 0.00 0.00 54 1012.5
20260503005546 48 330 1.0 3.0 0.00 0.00 0.00 54 1012.5
20260503005043 48 150 2.0 4.0 0.00 0.00 0.00 52 1012.3
20260503004539 49 73 2.0 3.0 0.00 0.00 0.00 53 1012.2
20260503004038 49 125 4.0 7.0 0.00 0.00 0.00 52 1012.2
20260503003534 49 70 3.0 10.0 0.00 0.00 0.00 50 1012.0
20260503003031 49 278 0.0 2.0 0.00 0.00 0.00 51 1011.9
20260503002528 49 302 0.0 2.0 0.00 0.00 0.00 53 1011.9
20260503002025 49 330 0.0 0.0 0.00 0.00 0.00 51 1011.9
20260503001521 50 119 0.0 0.0 0.00 0.00 0.00 49 1011.7
20260503001019 50 79 1.0 2.0 0.00 0.00 0.00 50 1011.7
20260503000511 50 343 1.0 1.0 0.00 0.00 0.00 49 1011.4
20260503000007 50 283 2.0 2.0 0.00 0.00 0.00 50 1011.4
20260502235503 50 90 2.0 3.0 0.00 0.00 0.00 48 1011.5
20260502235001 50 134 2.0 3.0 0.00 0.00 0.00 49 1011.2
20260502234457 51 88 2.0 3.0 0.00 0.00 0.00 48 1011.3
20260502233955 51 86 0.0 2.0 0.00 0.00 0.00 48 1011.4
20260502233450 51 73 1.0 4.0 0.00 0.00 0.00 50 1011.3
20260502232947 51 66 0.0 3.0 0.00 0.00 0.00 48 1011.1
20260502232444 51 92 2.0 6.0 0.00 0.00 0.00 49 1011.2
20260502231940 51 106 5.0 9.0 0.00 0.00 0.00 47 1011.1
20260502231438 52 82 1.0 3.0 0.00 0.00 0.00 48 1011.1
20260502230936 52 68 0.0 2.0 0.00 0.00 0.00 47 1011.1
20260502230434 52 48 0.0 3.0 0.00 0.00 0.00 45 1011.1
20260502225932 52 88 0.0 2.0 0.00 0.00 0.00 46 1010.9
20260502225427 52 69 1.0 2.0 0.00 0.00 0.00 46 1010.9
20260502224925 52 140 1.0 8.0 0.00 0.00 0.00 46 1010.8
20260502224420 53 327 2.0 3.0 0.00 0.00 0.00 46 1010.9
20260502223917 53 331 1.0 4.0 0.00 0.00 0.00 45 1010.8
20260502223415 53 314 1.0 2.0 0.00 0.00 0.00 44 1010.7
20260502222913 53 75 2.0 3.0 0.00 0.00 0.00 44 1010.7
20260502222411 53 50 0.0 2.0 0.00 0.00 0.00 48 1010.6
20260502221910 53 80 3.0 4.0 0.00 0.00 0.00 43 1010.7
20260502221407 53 111 2.0 3.0 0.00 0.00 0.00 43 1010.7
20260502220904 54 68 3.0 4.0 0.00 0.00 0.00 45 1010.8
20260502220400 54 66 1.0 3.0 0.00 0.00 0.00 45 1010.5
20260502215857 54 82 2.0 3.0 0.00 0.00 0.00 43 1010.5
20260502215355 54 76 2.0 4.0 0.00 0.00 0.00 45 1010.4
20260502214851 54 274 0.0 6.0 0.00 0.00 0.00 43 1010.3
20260502214348 54 86 3.0 8.0 0.00 0.00 0.00 42 1010.5
20260502213845 55 340 3.0 6.0 0.00 0.00 0.00 43 1010.4
20260502213342 54 77 2.0 4.0 0.00 0.00 0.00 41 1010.5
20260502212841 54 254 1.0 7.0 0.00 0.00 0.00 41 1010.4
20260502212339 54 206 2.0 3.0 0.00 0.00 0.00 42 1010.5
20260502211836 54 156 2.0 10.0 0.00 0.00 0.00 41 1010.5
20260502211331 54 76 1.0 9.0 0.00 0.00 0.00 43 1010.3
20260502210829 55 125 1.0 3.0 0.00 0.00 0.00 40 1010.4
20260502210326 55 343 2.0 3.0 0.00 0.00 0.00 41 1010.5
20260502205823 55 321 3.0 6.0 0.00 0.00 0.00 39 1010.1
20260502205319 55 80 1.0 8.0 0.00 0.00 0.00 40 1010.4
20260502204816 55 230 1.0 6.0 0.00 0.00 0.00 39 1010.3
20260502204313 55 354 0.0 3.0 0.00 0.00 0.00 40 1010.1
20260502203811 55 84 2.0 8.0 0.00 0.00 0.00 37 1010.5
20260502203309 54 246 1.0 2.0 0.00 0.00 0.00 42 1010.2
20260502202808 54 320 2.0 4.0 0.00 0.00 0.00 39 1010.3
20260502202306 55 71 6.0 7.0 0.00 0.00 0.00 38 1010.4
20260502201804 55 325 2.0 4.0 0.00 0.00 0.00 39 1010.4
20260502201300 54 273 2.0 6.0 0.00 0.00 0.00 39 1010.4
20260502200756 55 346 3.0 7.0 0.00 0.00 0.00 38 1010.3
20260502200252 55 90 8.0 10.0 0.00 0.00 0.00 39 1010.3
20260502195751 55 73 6.0 8.0 0.00 0.00 0.00 41 1010.5
20260502195247 55 86 4.0 4.0 0.00 0.00 0.00 40 1010.4
20260502194744 56 308 1.0 4.0 0.00 0.00 0.00 38 1010.5
20260502194241 56 328 8.0 10.0 0.00 0.00 0.00 39 1010.6
20260502193736 55 311 0.0 4.0 0.00 0.00 0.00 40 1010.9
20260502193234 55 125 6.0 8.0 0.00 0.00 0.00 38 1010.9
20260502192734 55 325 2.0 4.0 0.00 0.00 0.00 41 1010.9
20260502192232 55 227 1.0 3.0 0.00 0.00 0.00 42 1010.9
20260502191728 55 142 0.0 2.0 0.00 0.00 0.00 42 1010.8
20260502191226 55 348 3.0 6.0 0.00 0.00 0.00 38 1010.9
20260502190723 55 233 2.0 6.0 0.00 0.00 0.00 40 1011.2
20260502190221 58 293 5.0 7.0 0.00 0.00 0.00 37 1011.2
20260502185720 58 303 1.0 4.0 0.00 0.00 0.00 41 1011.1
20260502185217 56 70 2.0 3.0 0.00 0.00 0.00 44 1011.6
20260502184714 55 27 2.0 7.0 0.00 0.00 0.00 41 1011.3
20260502184209 55 15 2.0 6.0 0.00 0.00 0.00 40 1011.4
20260502183706 54 38 2.0 8.0 0.00 0.00 0.00 40 1011.4
20260502183202 55 342 2.0 8.0 0.00 0.00 0.00 39 1011.5
20260502182657 55 60 2.0 4.0 0.00 0.00 0.00 42 1011.7
20260502182153 55 84 3.0 7.0 0.00 0.00 0.00 40 1011.4
20260502181651 54 339 2.0 2.0 0.00 0.00 0.00 43 1011.6
20260502181150 54 203 3.0 8.0 0.00 0.00 0.00 41 1011.7
20260502180646 55 48 0.0 8.0 0.00 0.00 0.00 44 1011.6
20260502180144 55 335 2.0 7.0 0.00 0.00 0.00 43 1012.0
20260502170108 54 325 1.0 1.0 0.00 0.00 0.00 42 1011.9
20260502164054 52 70 2.0 3.0 0.00 0.00 0.00 50 1011.9
20260502163550 55 65 0.0 4.0 0.00 0.00 0.00 50 1012.1
20260502163047 52 64 1.0 6.0 0.00 0.00 0.00 56 1012.1
20260502162544 51 64 1.0 3.0 0.00 0.00 0.00 49 1012.3
20260502162041 51 78 3.0 4.0 0.00 0.00 0.00 51 1012.5
20260502161538 51 80 6.0 7.0 0.00 0.00 0.00 53 1012.5
20260502161036 52 328 2.0 3.0 0.00 0.00 0.00 53 1012.4
20260502160533 53 98 4.0 4.0 0.00 0.00 0.00 49 1012.4
20260502151941 52 88 0.0 1.0 0.00 0.00 0.00 51 1012.7
20260502151437 50 62 2.0 6.0 0.00 0.00 0.00 54 1012.7
20260502150935 51 39 5.0 8.0 0.00 0.00 0.00 53 1012.4
20260502150432 51 97 2.0 3.0 0.00 0.00 0.00 56 1012.6
20260502130317 46 80 1.0 2.0 0.00 0.00 0.00 68 1013.1
20260502123803 45 312 0.0 1.0 0.00 0.00 0.00 73 1013.1
20260502123300 45 302 1.0 2.0 0.00 0.00 0.00 72 1012.9
20260502122756 44 340 1.0 1.0 0.00 0.00 0.00 73 1013.2
20260502122252 44 37 0.0 1.0 0.00 0.00 0.00 77 1013.0
20260502121751 43 50 0.0 1.0 0.00 0.00 0.00 76 1013.2
20260502121248 43 2 0.0 0.0 0.00 0.00 0.00 83 1013.4
20260502120745 42 16 0.0 1.0 0.00 0.00 0.00 85 1013.3
20260502120242 41 92 1.0 3.0 0.00 0.00 0.00 85 1013.2
20260502115739 42 84 1.0 2.0 0.00 0.00 0.00 87 1013.3
20260502115236 41 18 0.0 0.0 0.00 0.00 0.00 85 1013.3
20260502114732 41 2 0.0 0.0 0.00 0.00 0.00 86 1013.2
20260502114229 41 301 0.0 0.0 0.00 0.00 0.00 86 1013.3
20260502113726 40 1 0.0 0.0 0.00 0.00 0.00 87 1013.2
20260502113224 40 317 1.0 1.0 0.00 0.00 0.00 87 1013.3
20260502112722 39 88 0.0 1.0 0.00 0.00 0.00 87 1013.3
20260502112219 39 67 0.0 1.0 0.00 0.00 0.00 88 1013.3
20260502111716 39 79 0.0 1.0 0.00 0.00 0.00 89 1013.4
20260502111214 38 263 1.0 1.0 0.00 0.00 0.00 89 1013.4
20260502110711 38 68 1.0 2.0 0.00 0.00 0.00 90 1013.1
20260502110209 38 37 0.0 0.0 0.00 0.00 0.00 91 1013.3
20260502105707 38 300 0.0 0.0 0.00 0.00 0.00 91 1013.4
20260502105203 38 330 0.0 0.0 0.00 0.00 0.00 91 1013.4
20260502104700 38 298 0.0 0.0 0.00 0.00 0.00 90 1013.4
20260502104158 37 72 0.0 0.0 0.00 0.00 0.00 91 1013.2
20260502103655 37 292 0.0 0.0 0.00 0.00 0.00 90 1013.3
20260502103153 37 276 0.0 0.0 0.00 0.00 0.00 90 1013.3
20260502102649 37 305 0.0 0.0 0.00 0.00 0.00 90 1013.3
20260502102146 37 305 0.0 0.0 0.00 0.00 0.00 90 1013.5
20260502101644 37 285 0.0 0.0 0.00 0.00 0.00 90 1013.4
20260502101142 37 317 0.0 0.0 0.00 0.00 0.00 90 1013.5
20260502100641 37 317 0.0 0.0 0.00 0.00 0.00 90 1013.2
20260502100138 37 316 0.0 0.0 0.00 0.00 0.00 90 1013.4
20260502091112 39 303 1.0 1.0 0.00 0.00 0.00 87 1013.2
20260502090609 39 302 0.0 1.0 0.00 0.00 0.00 86 1013.0
20260502090107 39 292 1.0 1.0 0.00 0.00 0.00 87 1013.0
20260502071504 43 310 2.0 3.0 0.00 0.00 0.00 77 1012.6
20260502071002 43 330 2.0 2.0 0.00 0.00 0.00 79 1012.8
20260502070500 43 302 1.0 1.0 0.00 0.00 0.00 80 1012.7
20260502065958 43 54 0.0 0.0 0.00 0.00 0.00 79 1012.6
20260502065456 43 54 1.0 2.0 0.00 0.00 0.00 78 1012.7
20260502064954 44 310 1.0 2.0 0.00 0.00 0.00 75 1012.7
20260502064451 45 300 0.0 1.0 0.00 0.00 0.00 74 1012.7
20260502063948 45 284 0.0 2.0 0.00 0.00 0.00 72 1012.6
20260502063446 45 318 2.0 3.0 0.00 0.00 0.00 71 1012.6
20260502062944 45 310 0.0 2.0 0.00 0.00 0.00 71 1012.3
20260502062441 46 331 1.0 3.0 0.00 0.00 0.00 70 1012.5
20260502061939 46 309 1.0 4.0 0.00 0.00 0.00 69 1012.5
20260502061437 46 234 1.0 2.0 0.00 0.00 0.00 70 1012.3
20260502060932 46 310 3.0 4.0 0.00 0.00 0.00 69 1012.5
20260502060428 46 308 2.0 3.0 0.00 0.00 0.00 68 1012.6
20260502055925 47 312 1.0 3.0 0.00 0.00 0.00 68 1012.6
20260502055423 47 7 1.0 8.0 0.00 0.00 0.00 67 1012.7
20260502054923 47 306 0.0 3.0 0.00 0.00 0.00 68 1012.6
20260502054420 47 121 1.0 4.0 0.00 0.00 0.00 68 1012.6
20260502053917 47 248 4.0 8.0 0.00 0.00 0.00 68 1012.5
20260502053414 48 343 2.0 4.0 0.00 0.00 0.00 69 1012.4
20260502052912 48 97 1.0 2.0 0.00 0.00 0.00 68 1012.6
20260502052410 48 324 4.0 4.0 0.00 0.00 0.00 67 1012.7
20260502051907 48 299 3.0 6.0 0.00 0.00 0.00 67 1012.7
20260502051406 49 321 2.0 2.0 0.00 0.00 0.00 67 1012.5
20260502050902 49 335 2.0 4.0 0.00 0.00 0.00 68 1012.8
20260502050359 49 311 3.0 6.0 0.00 0.00 0.00 71 1012.6
20260502045856 49 304 1.0 1.0 0.00 0.00 0.00 70 1012.3
20260502045352 49 320 1.0 1.0 0.00 0.00 0.00 69 1012.5
20260502044849 49 64 0.0 1.0 0.00 0.00 0.00 70 1012.0
20260502044345 49 312 0.0 2.0 0.00 0.00 0.00 69 1012.1
20260502043843 49 308 2.0 4.0 0.00 0.00 0.00 70 1012.3
20260502043340 49 87 1.0 1.0 0.00 0.00 0.00 70 1012.1
20260502042840 49 80 1.0 2.0 0.00 0.00 0.00 69 1011.9
20260502042337 50 68 2.0 6.0 0.00 0.00 0.00 68 1012.3
20260502041835 50 75 3.0 4.0 0.00 0.00 0.00 70 1012.3
20260502041332 50 120 1.0 4.0 0.00 0.00 0.00 70 1012.2
20260502040829 50 73 1.0 6.0 0.00 0.00 0.00 70 1012.1
20260502040326 50 67 2.0 2.0 0.00 0.00 0.00 71 1011.9
20260502035822 51 107 3.0 8.0 0.00 0.00 0.00 69 1012.0
20260502035319 51 92 2.0 3.0 0.00 0.00 0.00 71 1011.7
20260502034816 52 333 3.0 6.0 0.00 0.00 0.00 69 1011.9
20260502034314 52 316 2.0 4.0 0.00 0.00 0.00 69 1011.7
20260502033812 52 313 1.0 4.0 0.00 0.00 0.00 68 1011.5
20260502033309 52 312 5.0 7.0 0.00 0.00 0.00 68 1011.9
20260502032806 52 40 2.0 4.0 0.00 0.00 0.00 68 1011.7
20260502032305 52 304 3.0 11.0 0.00 0.00 0.00 67 1011.5
20260502031800 52 58 2.0 3.0 0.00 0.00 0.00 67 1011.5
20260502031258 52 70 0.0 3.0 0.00 0.00 0.00 67 1011.6
20260502030756 52 42 1.0 6.0 0.00 0.00 0.00 66 1011.4
20260502030254 52 48 2.0 4.0 0.00 0.00 0.00 66 1011.5
20260502025751 52 99 2.0 3.0 0.00 0.00 0.00 65 1011.4
20260502025249 52 282 4.0 9.0 0.00 0.00 0.00 64 1011.5
20260502024746 53 14 1.0 7.0 0.00 0.00 0.00 64 1011.4
20260502024244 53 309 0.0 3.0 0.00 0.00 0.00 63 1011.4
20260502023742 53 155 2.0 6.0 0.00 0.00 0.00 64 1011.5
20260502023239 53 358 2.0 2.0 0.00 0.00 0.00 64 1011.6
20260502022737 53 253 2.0 2.0 0.00 0.00 0.00 63 1011.4
20260502022233 53 325 0.0 3.0 0.00 0.00 0.00 63 1011.5